When you browse on this site, cookies collect data to enhance your experience and personalize the content and advertising you see.
Visit our Privacy Policy to learn more. By continuing to use the site, you agree to this use of cookies and data.
  • In Österreich
  • Länderverzeichnis
  • Für 7 Tage
  • Wassertemperatur
  • Wetterkarte
  • News
  • Widgets
  • user-avatar
    Anmelden

    Stündliche Wetter Troy

    Heute, 11 Dezember, Mittwoch

    Zeit Temperatur Niederschläge Wind Luftdruck Luftfeuchtigkeit
    00:00 -1°C° 0.1 mm 3 m/S 763 mmHg 79%
    01:00 -2°C° 0.1 mm 3 m/S 763 mmHg 75%
    02:00 -2°C° 0 mm 3 m/S 764 mmHg 73%
    03:00 -4°C° 0 mm 3 m/S 764 mmHg 71%
    04:00 -4°C° 0 mm 3 m/S 764 mmHg 69%
    05:00 -4°C° 0 mm 3 m/S 765 mmHg 69%
    06:00 -4°C° 0 mm 2 m/S 765 mmHg 69%
    07:00 -4°C° 0 mm 2 m/S 766 mmHg 69%
    08:00 -3°C° 0 mm 2 m/S 766 mmHg 66%
    09:00 -3°C° 0 mm 2 m/S 766 mmHg 64%
    10:00 -3°C° 0 mm 2 m/S 766 mmHg 61%
    11:00 -2°C° 0 mm 2 m/S 766 mmHg 61%
    12:00 -1°C° 0 mm 2 m/S 765 mmHg 61%
    13:00 +1°C° 0 mm 2 m/S 765 mmHg 62%
    14:00 -1°C° 0 mm 2 m/S 765 mmHg 69%
    15:00 -1°C° 0 mm 2 m/S 765 mmHg 77%
    16:00 -1°C° 0 mm 2 m/S 765 mmHg 85%
    17:00 -2°C° 0.1 mm 2 m/S 765 mmHg 81%
    18:00 -2°C° 0.1 mm 2 m/S 766 mmHg 76%
    19:00 -4°C° 0.1 mm 3 m/S 767 mmHg 71%
    20:00 -4°C° 0 mm 4 m/S 768 mmHg 67%
    21:00 -6°C° 0 mm 5 m/S 768 mmHg 63%
    22:00 -6°C° 0 mm 6 m/S 769 mmHg 59%
    23:00 -7°C° 0 mm 5 m/S 770 mmHg 61%

    Morgen, 12 Dezember, Donnerstag

    Zeit Temperatur Niederschläge Wind Luftdruck Luftfeuchtigkeit
    00:00 -7°C° 0 mm 5 m/S 771 mmHg 63%
    01:00 -8°C° 0 mm 4 m/S 772 mmHg 65%
    02:00 -8°C° 0 mm 4 m/S 773 mmHg 66%
    03:00 -8°C° 0 mm 4 m/S 774 mmHg 66%
    04:00 -8°C° 0 mm 3 m/S 774 mmHg 66%
    05:00 -8°C° 0 mm 3 m/S 775 mmHg 68%
    06:00 -7°C° 0 mm 2 m/S 776 mmHg 70%
    07:00 -6°C° 0 mm 1 m/S 777 mmHg 72%
    08:00 -4°C° 0 mm 1 m/S 777 mmHg 70%
    09:00 -5°C° 0 mm 2 m/S 777 mmHg 68%
    10:00 -5°C° 0 mm 2 m/S 778 mmHg 67%
    11:00 -2°C° 0 mm 1 m/S 777 mmHg 64%
    12:00 -2°C° 0 mm 1 m/S 777 mmHg 61%
    13:00 -1°C° 0 mm 1 m/S 777 mmHg 59%
    14:00 -1°C° 0 mm 1 m/S 777 mmHg 61%
    15:00 -1°C° 0 mm 1 m/S 776 mmHg 63%
    16:00 -1°C° 0 mm 1 m/S 776 mmHg 65%
    17:00 -4°C° 0 mm 2 m/S 776 mmHg 66%
    18:00 -4°C° 0 mm 2 m/S 776 mmHg 67%
    19:00 -4°C° 0 mm 2 m/S 776 mmHg 67%
    20:00 -5°C° 0 mm 3 m/S 775 mmHg 66%
    21:00 -5°C° 0 mm 3 m/S 775 mmHg 65%
    22:00 -5°C° 0 mm 3 m/S 775 mmHg 64%
    23:00 -5°C° 0 mm 3 m/S 774 mmHg 64%

    übermorgen, 13 Dezember, Freitag

    Zeit Temperatur Niederschläge Wind Luftdruck Luftfeuchtigkeit
    00:00 -5°C° 0 mm 3 m/S 774 mmHg 63%
    01:00 -5°C° 0 mm 3 m/S 774 mmHg 63%
    02:00 -5°C° 0 mm 3 m/S 773 mmHg 67%
    03:00 -4°C° 0 mm 3 m/S 773 mmHg 72%
    04:00 -4°C° 0 mm 3 m/S 772 mmHg 76%
    05:00 -4°C° 0 mm 3 m/S 772 mmHg 78%
    06:00 -3°C° 0 mm 2 m/S 772 mmHg 81%
    07:00 -2°C° 0 mm 2 m/S 772 mmHg 83%
    08:00 -1°C° 0 mm 2 m/S 771 mmHg 82%
    09:00 +1°C° 0 mm 2 m/S 770 mmHg 81%
    10:00 +2°C° 0 mm 2 m/S 770 mmHg 80%
    11:00 +3°C° 0 mm 2 m/S 769 mmHg 81%
    12:00 +3°C° 0 mm 2 m/S 769 mmHg 83%
    13:00 +4°C° 0 mm 2 m/S 768 mmHg 84%
    14:00 +4°C° 0 mm 2 m/S 767 mmHg 87%
    15:00 +3°C° 0 mm 2 m/S 767 mmHg 90%
    16:00 +3°C° 0 mm 2 m/S 766 mmHg 93%
    17:00 +4°C° 0 mm 1 m/S 766 mmHg 94%
    18:00 +4°C° 0 mm 1 m/S 766 mmHg 94%
    19:00 +4°C° 0 mm 1 m/S 766 mmHg 95%
    20:00 +3°C° 0.2 mm 2 m/S 765 mmHg 95%
    21:00 +4°C° 0.2 mm 2 m/S 764 mmHg 96%
    22:00 +4°C° 0.2 mm 2 m/S 764 mmHg 96%
    23:00 +4°C° 0 mm 2 m/S 763 mmHg 96%

    14 Dezember, Samstag

    Zeit Temperatur Niederschläge Wind Luftdruck Luftfeuchtigkeit
    00:00 +4°C° 0 mm 2 m/S 762 mmHg 96%
    01:00 +5°C° 0 mm 1 m/S 761 mmHg 96%
    02:00 +6°C° 0.4 mm 1 m/S 760 mmHg 96%
    03:00 +6°C° 0.4 mm 1 m/S 759 mmHg 96%
    04:00 +5°C° 0.4 mm 2 m/S 757 mmHg 97%
    05:00 +5°C° 2 mm 2 m/S 756 mmHg 97%
    06:00 +5°C° 2 mm 2 m/S 755 mmHg 97%
    07:00 +5°C° 2 mm 2 m/S 753 mmHg 97%
    08:00 +5°C° 1.9 mm 2 m/S 752 mmHg 97%
    09:00 +5°C° 1.9 mm 2 m/S 750 mmHg 97%
    10:00 +5°C° 1.9 mm 2 m/S 749 mmHg 97%
    11:00 +5°C° 0.1 mm 2 m/S 748 mmHg 97%
    12:00 +6°C° 0.1 mm 2 m/S 746 mmHg 97%
    13:00 +6°C° 0.1 mm 2 m/S 745 mmHg 96%
    14:00 +7°C° 0 mm 1 m/S 745 mmHg 97%
    15:00 +6°C° 0 mm 1 m/S 745 mmHg 97%
    16:00 +5°C° 0 mm 0 m/S 744 mmHg 98%
    17:00 +6°C° 0.1 mm 1 m/S 744 mmHg 98%
    18:00 +6°C° 0.1 mm 1 m/S 745 mmHg 98%
    19:00 +6°C° 0.1 mm 1 m/S 745 mmHg 98%
    20:00 +5°C° 0.5 mm 2 m/S 745 mmHg 95%
    21:00 +4°C° 0.5 mm 3 m/S 745 mmHg 92%
    22:00 +5°C° 0.5 mm 4 m/S 746 mmHg 90%
    23:00 +4°C° 0 mm 4 m/S 746 mmHg 88%

    15 Dezember, Sonntag

    Zeit Temperatur Niederschläge Wind Luftdruck Luftfeuchtigkeit
    00:00 +4°C° 0 mm 4 m/S 747 mmHg 85%
    01:00 +2°C° 0 mm 5 m/S 748 mmHg 83%
    02:00 +3°C° 0 mm 4 m/S 748 mmHg 83%
    03:00 +3°C° 0 mm 3 m/S 749 mmHg 84%
    04:00 +3°C° 0 mm 2 m/S 749 mmHg 84%
    05:00 +2°C° 0 mm 3 m/S 750 mmHg 84%
    06:00 +2°C° 0 mm 3 m/S 750 mmHg 85%
    07:00 +2°C° 0 mm 3 m/S 751 mmHg 85%
    08:00 +2°C° 0 mm 3 m/S 751 mmHg 85%
    09:00 +3°C° 0 mm 4 m/S 752 mmHg 85%
    10:00 +3°C° 0 mm 4 m/S 752 mmHg 84%
    11:00 +3°C° 0 mm 4 m/S 753 mmHg 77%
    12:00 +3°C° 0 mm 5 m/S 753 mmHg 71%
    13:00 +3°C° 0 mm 6 m/S 753 mmHg 64%
    14:00 +2°C° 0 mm 5 m/S 753 mmHg 65%
    15:00 +1°C° 0 mm 4 m/S 754 mmHg 66%
    16:00 0°C° 0 mm 4 m/S 754 mmHg 67%
    17:00 -1°C° 0 mm 4 m/S 755 mmHg 67%
    18:00 -1°C° 0 mm 5 m/S 756 mmHg 67%
    19:00 -2°C° 0 mm 5 m/S 757 mmHg 67%
    20:00 -4°C° 0 mm 5 m/S 758 mmHg 66%
    21:00 -4°C° 0 mm 5 m/S 759 mmHg 66%
    22:00 -4°C° 0 mm 6 m/S 760 mmHg 65%
    23:00 -5°C° 0 mm 6 m/S 760 mmHg 63%

    16 Dezember, Montag

    Zeit Temperatur Niederschläge Wind Luftdruck Luftfeuchtigkeit
    00:00 -5°C° 0 mm 5 m/S 761 mmHg 61%
    01:00 -6°C° 0 mm 5 m/S 762 mmHg 59%
    02:00 -6°C° 0 mm 5 m/S 763 mmHg 58%
    03:00 -6°C° 0 mm 5 m/S 763 mmHg 56%
    04:00 -6°C° 0 mm 5 m/S 764 mmHg 54%
    05:00 -6°C° 0 mm 5 m/S 765 mmHg 54%
    06:00 -5°C° 0 mm 4 m/S 766 mmHg 54%
    07:00 -5°C° 0 mm 4 m/S 766 mmHg 54%
    08:00 -5°C° 0 mm 4 m/S 767 mmHg 52%
    09:00 -5°C° 0 mm 4 m/S 768 mmHg 49%
    10:00 -4°C° 0 mm 4 m/S 769 mmHg 47%
    11:00 -4°C° 0 mm 4 m/S 769 mmHg 45%
    12:00 -3°C° 0 mm 4 m/S 769 mmHg 43%
    13:00 -3°C° 0 mm 4 m/S 769 mmHg 41%
    14:00 -2°C° 0 mm 3 m/S 769 mmHg 44%
    15:00 -2°C° 0 mm 2 m/S 769 mmHg 46%
    16:00 -3°C° 0 mm 2 m/S 769 mmHg 49%
    17:00 -1°C° 0 mm 1 m/S 769 mmHg 50%
    18:00 -1°C° 0 mm 1 m/S 769 mmHg 52%
    19:00 -1°C° 0 mm 1 m/S 769 mmHg 54%
    20:00 -1°C° 0 mm 1 m/S 768 mmHg 53%
    21:00 -1°C° 0 mm 1 m/S 768 mmHg 53%
    22:00 -1°C° 0 mm 1 m/S 767 mmHg 52%
    23:00 -1°C° 0.8 mm 1 m/S 767 mmHg 56%
    Mehr zeigen